Terminal Aerodrome Forecast
Issued by NWS Topeka, KS

Home | Current Version | Previous Version | Text Only | Print | Product List | Glossary On
Versions: 1 2 3 4 5 6 7 8 9 10 11 12 13 14 15 16
000
FTUS43 KTOP 201720
TAFTOP
TAF
KTOP 201720Z 2018/2118 20009KT P6SM SKC
     FM210800 19005KT P6SM SKC WS010/23040KT
     FM211300 20007KT P6SM SKC=

USA.gov is the U.S. government's official web portal to all federal, state and local government web resources and services.